New Roads False River Regiona, LA

8:36 PM CST on November 16, 2019 (GMT -0600)
False River

Weather History for KHZR - October, 2019

Change the Weather History Date:

Saturday, October 19, 2019

  Actual Average (WUND) Record (WUND)
Temperature  
Mean Temperature 66 °F -  
Max Temperature 80 °F - - (-1)
Min Temperature 53 °F - - (-1)
Cooling Degree Days 2    
Growing Degree Days 16 (Base 50)    
Moisture  
Dew Point 58 °F    
Average Humidity 80    
Maximum Humidity 100    
Minimum Humidity 42    
Precipitation  
Precipitation 0.00 in - - ()
Sea Level Pressure  
Sea Level Pressure 29.79 in    
Wind  
Wind Speed 1 mph ()    
Max Wind Speed 7 mph    
Max Gust Speed -    
Visibility 10.0 miles    
Events      
Averages and records for this station are not official NWS values.
T = Trace of Precipitation, MM = Missing Value Source: Averaged Metar Reports

Daily Weather History Graph

Daily Weather History Graph

Search for Another Location

Airport or City:

Astronomy

Oct. 19, 2019 Rise Set
Actual Time 7:10 AM CDT 6:30 PM CDT
Civil Twilight 6:46 AM CDT 6:54 PM CDT
Nautical Twilight 6:18 AM CDT 7:22 PM CDT
Astronomical Twilight 5:50 AM CDT 7:50 PM CDT
Moon 10:55 PM CDT (10/19) 12:27 PM CDT (10/19)
Length of Visible Light 12h 08m
Length of Day
11h 19m
Waning Gibbous, 69% of the Moon is Illuminated
Oct 19
Waning Gibbous
Oct 21
Last Quarter
Oct 27
New
Nov 4
First Quarter
Nov 12
Full

Hourly Weather History & Observations

Time (CDT) Temp. Heat Index Dew Point Humidity Pressure Visibility Wind Dir Wind Speed Gust Speed Precip Events Conditions
12:15 AM 57.2 °F - 51.8 °F 82% 29.79 in 10.0 mi ENE 3.5 mph - N/A   Clear
12:36 AM 57.2 °F - 51.8 °F 82% 29.79 in 10.0 mi Calm Calm - N/A   Scattered Clouds
12:57 AM 57.2 °F - 51.8 °F 82% 29.78 in 10.0 mi Calm Calm - N/A   Mostly Cloudy
1:55 AM 55.4 °F - 53.6 °F 94% 29.79 in 10.0 mi Calm Calm - N/A   Mostly Cloudy
2:15 AM 55.4 °F - 53.6 °F 94% 29.79 in 10.0 mi NNW 3.5 mph - N/A   Scattered Clouds
2:37 AM 55.4 °F - 53.6 °F 94% 29.79 in 10.0 mi Calm Calm - N/A   Clear
2:57 AM 55.4 °F - 51.8 °F 88% 29.79 in 10.0 mi Calm Calm - N/A   Clear
3:17 AM 53.6 °F - 53.6 °F 100% 29.79 in 10.0 mi Calm Calm - N/A   Clear
3:35 AM 55.4 °F - 53.6 °F 94% 29.79 in 10.0 mi WNW 3.5 mph - N/A   Clear
4:35 AM 53.6 °F - 53.6 °F 100% 29.78 in 10.0 mi Calm Calm - N/A   Clear
5:15 AM 53.6 °F - 53.6 °F 100% 29.78 in 10.0 mi Calm Calm - N/A   Clear
5:55 AM 53.6 °F - 53.6 °F 100% 29.79 in 10.0 mi Calm Calm - N/A   Clear
6:16 AM 53.6 °F - 53.6 °F 100% 29.79 in 10.0 mi Calm Calm - N/A   Clear
6:36 AM 53.6 °F - 53.6 °F 100% 29.79 in 10.0 mi Calm Calm - N/A   Clear
6:55 AM 53.6 °F - 53.6 °F 100% 29.79 in 10.0 mi Calm Calm - N/A   Clear
7:17 AM 53.6 °F - 53.6 °F 100% 29.79 in 10.0 mi Calm Calm - N/A   Clear
7:37 AM 53.6 °F - 53.6 °F 100% 29.79 in 10.0 mi Calm Calm - N/A   Clear
8:35 AM 57.2 °F - 55.4 °F 94% 29.82 in 10.0 mi Calm Calm - N/A   Mostly Cloudy
8:56 AM 59.0 °F - 55.4 °F 88% 29.82 in 10.0 mi Calm Calm - N/A   Overcast
9:15 AM 60.8 °F - 55.4 °F 82% 29.82 in 10.0 mi Calm Calm - N/A   Mostly Cloudy
9:37 AM 62.6 °F - 57.2 °F 82% 29.83 in 10.0 mi Calm Calm - N/A   Scattered Clouds
9:56 AM 64.4 °F - 57.2 °F 77% 29.83 in 10.0 mi Calm Calm - N/A   Scattered Clouds
10:15 AM 66.2 °F - 59.0 °F 78% 29.82 in 10.0 mi WNW 3.5 mph - N/A   Scattered Clouds
10:35 AM 69.8 °F - 60.8 °F 73% 29.83 in 10.0 mi West 3.5 mph - N/A   Clear
10:56 AM 71.6 °F - 57.2 °F 60% 29.82 in 10.0 mi WNW 4.6 mph - N/A   Clear
11:15 AM 71.6 °F - 59.0 °F 64% 29.82 in 10.0 mi NNW 5.8 mph - N/A   Clear
11:35 AM 73.4 °F - 60.8 °F 65% 29.82 in 10.0 mi West 4.6 mph - N/A   Clear
11:55 AM 73.4 °F - 59.0 °F 61% 29.82 in 10.0 mi WNW 4.6 mph - N/A   Clear
12:17 PM 73.4 °F - 60.8 °F 65% 29.81 in 10.0 mi NW 4.6 mph - N/A   Clear
12:37 PM 75.2 °F - 60.8 °F 61% 29.80 in 10.0 mi Calm Calm - N/A   Clear
12:55 PM 75.2 °F - 60.8 °F 61% 29.79 in 10.0 mi Calm Calm - N/A   Clear
1:15 PM 77.0 °F - 60.8 °F 57% 29.79 in 10.0 mi WNW 5.8 mph - N/A   Clear
1:35 PM 77.0 °F - 60.8 °F 57% 29.77 in 10.0 mi NW 5.8 mph - N/A   Clear
2:56 PM 78.8 °F - 60.8 °F 54% 29.76 in 10.0 mi WNW 3.5 mph - N/A   Clear
3:16 PM 78.8 °F - 57.2 °F 47% 29.75 in 10.0 mi Calm Calm - N/A   Clear
3:36 PM 80.6 °F 80.5 °F 55.4 °F 42% 29.75 in 10.0 mi NNW 5.8 mph - N/A   Clear
3:56 PM 80.6 °F 80.5 °F 55.4 °F 42% 29.75 in 10.0 mi NNW 6.9 mph - N/A   Clear
4:56 PM 80.6 °F 81.5 °F 60.8 °F 51% 29.74 in 10.0 mi Calm Calm - N/A   Clear
5:16 PM 78.8 °F - 60.8 °F 54% 29.75 in 10.0 mi North 3.5 mph - N/A   Clear
5:36 PM 78.8 °F - 60.8 °F 54% 29.75 in 10.0 mi NNW 3.5 mph - N/A   Clear
5:56 PM 75.2 °F - 62.6 °F 65% 29.76 in 10.0 mi Calm Calm - N/A   Clear
6:37 PM 71.6 °F - 62.6 °F 73% 29.76 in 10.0 mi Calm Calm - N/A   Clear
7:37 PM 66.2 °F - 64.4 °F 94% 29.78 in 10.0 mi Calm Calm - N/A   Clear
7:55 PM 66.2 °F - 62.6 °F 88% 29.78 in 10.0 mi Calm Calm - N/A   Clear
8:15 PM 66.2 °F - 64.4 °F 94% 29.79 in 10.0 mi Calm Calm - N/A   Clear
8:35 PM 64.4 °F - 62.6 °F 94% 29.79 in 10.0 mi Calm Calm - N/A   Clear
9:16 PM 64.4 °F - 62.6 °F 94% 29.81 in 10.0 mi Calm Calm - N/A   Clear
9:35 PM 64.4 °F - 62.6 °F 94% 29.81 in 10.0 mi Calm Calm - N/A   Clear
9:57 PM 62.6 °F - 62.6 °F 100% 29.81 in 10.0 mi Calm Calm - N/A   Clear
10:35 PM 62.6 °F - 62.6 °F 100% 29.82 in 10.0 mi Calm Calm - N/A   Clear
10:56 PM 62.6 °F - 62.6 °F 100% 29.82 in 10.0 mi Calm Calm - N/A   Clear
11:37 PM 62.6 °F - 62.6 °F 100% 29.82 in 10.0 mi Calm Calm - N/A   Clear